Location: Topeka
(39.0480°N, 95.6780°W)
Time: 09:07:43
(UTC-05:00)

ISS - Visible Passes

Search period start: 24 March 2017 00:00
Search period end: 03 April 2017 00:00
Orbit: 399 x 409 km, 51.6° (Epoch: 24 March)

Date Brightness Start Highest point End Pass type
(mag) Time Alt. Az. Time Alt. Az. Time Alt. Az.
24 Mar -2.0 05:24:19 26° SE 05:24:19 26° SE 05:25:54 10° SE visible
25 Mar -1.5 06:08:03 12° SSW 06:08:03 12° SSW 06:08:30 10° S visible
25 Mar -1.8 21:06:13 10° SSW 21:07:12 16° S 21:07:12 16° S visible
26 Mar -1.9 20:15:03 10° SSE 20:16:50 14° SE 20:18:21 11° E visible
26 Mar -1.6 21:49:46 10° WSW 21:51:05 22° WSW 21:51:05 22° WSW visible
27 Mar -4.0 20:57:20 10° SW 21:00:34 74° SE 21:01:59 31° ENE visible
28 Mar -3.1 20:05:16 10° SSW 20:08:15 34° SE 20:11:15 10° ENE visible
28 Mar -1.9 21:41:56 10° W 21:44:45 26° NNW 21:45:17 25° N visible
29 Mar -2.7 20:49:05 10° WSW 20:52:13 44° NW 20:55:22 10° NE visible
29 Mar -0.4 22:27:53 10° NW 22:28:19 11° NW 22:28:19 11° NW visible
30 Mar -1.0 21:34:29 10° WNW 21:36:38 16° NNW 21:38:27 11° NNE visible
31 Mar -1.5 20:41:18 10° W 20:43:58 23° NNW 20:46:39 10° NNE visible
01 Apr -0.8 21:27:23 10° NW 21:28:34 11° NNW 21:29:45 10° N visible
02 Apr -1.0 20:33:52 10° NW 20:35:48 15° NNW 20:37:43 10° NNE visible
